Location: Kaikalui
(16.5250°N, 81.1500°E)
Time: 15:39:26
(UTC+00:00)

Cosmos 1953 - Pass Details

Date: 14 April 2026
Orbit: 472 x 483 km, 82.5° (Epoch: 11 May)

Event Time Altitude Azimuth Distance (km) Brightness Sun altitude
Rises 13:24:51 0° 190° (S) 2,500 5.7 -8.9°
Reaches altitude 10° 13:26:56 10° 193° (SSW) 1,626 4.7 -9.4°
Maximum altitude 13:30:27 63° 275° (W) 529 2.5 -10.2°
Drops below altitude 10° 13:33:58 10° 357° (N) 1,632 5.0 -11.0°
Sets 13:36:05 0° 0° (N) 2,511 5.9 -11.5°
